Regional Weather Roundup
Issued by NWS

Home | Current Version | Previous Version | Graphics & Text | Print | Product List | Glossary On
Versions: 1 2 3 4 5 6 7 8 9 10 11 12 13 14 15 16 17 18 19 20 21 22 23 24 25 26 27 28 29 30 31 32 33 34 35 36 37 38 39 40 41 42 43 44 45 46 47 48 49 50
000
ASUS43 KMKX 292200
RWRWI

WISCONSIN REGIONAL WEATHER ROUNDUP
NATIONAL WEATHER SERVICE MILWAUKEE/SULLIVAN WI
500 PM CDT SAT AUG 29 2015

NOTE: "FAIR" INDICATES FEW OR NO CLOUDS BELOW 12,000 FEET WITH NO
SIGNIFICANT WEATHER AND/OR OBSTRUCTIONS TO VISIBILITY.

WIZ001-002-006>008-014>016-023>028-292300-
NORTHWEST WISCONSIN

CITY           SKY/WX    TMP DP  RH WIND       PRES   REMARKS
SUPERIOR ARPT  PTSUNNY   75  64  69 W7        29.99S
ASHLAND        PTSUNNY   76  65  68 W6        30.00S
HAYWARD        CLOUDY    73  62  68 S7        30.03S
SIREN          PTSUNNY   74  61  63 W5        30.03F
CUMBERLAND     SUNNY     72  61  68 SW3       30.05S
RICE LAKE      MOSUNNY   73  62  68 SW5       30.05S
CHETEK         MOSUNNY  N/A N/A N/A S3        30.04S
LADYSMITH      SUNNY     74  62  65 S6        30.06S
EAU CLAIRE     NOT AVBL
MENOMONIE      SUNNY     71  61  70 CALM      30.05S
NEW RICHMOND   MOSUNNY   72  61  68 CALM      30.04S
OSCEOLA        PTSUNNY   73  60  63 S5        30.06S
$$

WIZ003>005-009-010-017-018-292300-
NORTH CENTRAL WISCONSIN

CITY           SKY/WX    TMP DP  RH WIND       PRES   REMARKS
MANITOWISH WTR CLOUDY    74  60  61 CALM      30.03F
ARBOR VITAE    PTSUNNY   77  62  59 S7        30.04S
WOODRUFF       PTSUNNY   77  62  59 S7        30.04S
RHINELANDER    SUNNY     74  58  57 VRB5      30.06S
EAGLE RIVER    SUNNY     75  55  49 W6        30.03F
LAND O LAKES   PTSUNNY   77  57  49 CALM      30.04S
PHILLIPS       PTSUNNY   75  61  61 CALM      30.04S
TOMAHAWK       SUNNY     73  60  64 SW5       30.06S
MEDFORD        PTSUNNY   70  61  75 CALM      30.06S
MERRILL        MOSUNNY   71  61  70 SW3       30.06F
$$

WIZ029-030-035-036-043>047-292300-
CENTRAL WISCONSIN

CITY           SKY/WX    TMP DP  RH WIND       PRES   REMARKS
WAUSAU         CLOUDY    68  59  73 S3        30.05S
MOSINEE        CLOUDY    64  61  88 CALM      30.07F
MARSHFIELD     CLOUDY    67  58  72 SE3       30.07S
STEVENS POINT  CLOUDY    63  58  84 CALM      30.07S
WAUPACA        CLOUDY    69  63  80 CALM      30.06R
WAUTOMA        NOT AVBL
WISC RAPIDS    NOT AVBL
CAMP DOUGLAS   NOT AVBL
$$

WIZ011>013-019>022-031-037>040-048>050-292300-
NORTHEAST WISCONSIN

CITY           SKY/WX    TMP DP  RH WIND       PRES   REMARKS
ANTIGO         PTSUNNY   67  58  72 S3        30.07S
SHAWANO        PTSUNNY   72  61  69 N3        30.05S
OCONTO         PTSUNNY   68  63  84 CALM      30.04S
STURGEON BAY   PTSUNNY   66  61  82 CALM      30.07S
GREEN BAY      CLOUDY    71  63  75 E5        30.04S
MANITOWOC      NOT AVBL
APPLETON       CLOUDY    70  59  68 CALM      30.04R
CLINTONVILLE   CLOUDY    68  59  73 NW6       30.05S
OSHKOSH        CLOUDY    69  60  73 CALM      30.04R
$$

WIZ032>034-041-042-053>061-292300-
SOUTHWEST WISCONSIN

CITY           SKY/WX    TMP DP  RH WIND       PRES   REMARKS
LA CROSSE      CLOUDY    72  63  73 CALM      30.04S
SPARTA         CLOUDY    70  59  66 CALM      30.06S
VIROQUA          N/A     70  62  76 NE5       30.06R
BOSCOBEL       CLOUDY    72  62  71 CALM      30.04S
PRAIRIE DU CHI CLOUDY    71  61  70 E3        30.03S
PLATTEVILLE    CLOUDY    71  66  85 N6        30.03S
$$

WIZ056-057-062-063-064-067-068-292300-
SOUTH CENTRAL WISCONSIN

CITY           SKY/WX    TMP DP  RH WIND       PRES   REMARKS
REEDSBURG      CLOUDY    68  61  78 NE3       30.04S
BARABOO/DELLS  CLOUDY    68  60  76 N5        30.05R
LONE ROCK      NOT AVBL
MINERAL POINT  CLOUDY    70  63  78 N6        30.05R
MADISON        CLOUDY    67  62  84 NE5       30.03S
MIDDLETON      CLOUDY    69  65  87 E3        30.04S
WATERTOWN      CLOUDY    66  66 100 E3        30.03S
MONROE         CLOUDY    68  63  83 N8        30.03S
JANESVILLE     CLOUDY    72  64  78 N6        30.01S
$$

WIZ051-052-058>065-066-070>072-292300-
SOUTHEAST WISCONSIN

CITY           SKY/WX    TMP DP  RH WIND       PRES   REMARKS
MILWAUKEE      FOG       59  58  96 NE7       30.03S VSB 1/4
WAUKESHA       CLOUDY    63  61  94 NE6       30.04F FOG
MILWAUKEE/TIMM CLOUDY    63  61  94 NE5       30.04F FOG
RACINE         CLOUDY    62  59  90 N5        30.03F FOG
BURLINGTON     CLOUDY    65  63  93 NE6       30.02S FOG
KENOSHA        CLOUDY    66  64  93 NE7       30.02S FOG
FOND DU LAC    CLOUDY    68  62  81 SE5       30.04S
SHEBOYGAN      CLOUDY    66  62  87 S7        30.04S
WEST BEND      CLOUDY    63  59  88 CALM      30.05R
JUNEAU         CLOUDY    67  62  83 CALM      30.05S
$$

LSZ147-162-292300-
LAKE SUPERIOR

STATION/POSITION TIME  TEMP    WIND        PRES    WAVE
                       AIR SEA DIR/SP/G            HT/PER
                 (UTC) (F)     (DEG/KT/KT) (MB)    (FT/S)
W MID LAKE BUOY  2050   59 55  220/ 10/ 10 1015.4F   2/ 4
DEVILS ISLAND    2100   67     220/  7/ 10 1015.4F
PORT WING        2100   71     250/  3/  6 1015.6F
SAXON HARBOR     2100   69        CALM     1015.6
$$

LMZ867-665-643>646-292300-
LAKE MICHIGAN

STATION/POSITION TIME  TEMP    WIND        PRES    WAVE
                       AIR SEA DIR/SP/G            HT/PER
                 (UTC) (F)     (DEG/KT/KT) (MB)    (FT/S)
CHAMBERS ISLAND  2100   68     180/  6/  8 1017.3F
S GREEN BAY BUOY 2100   64 64   30/  6/  8 1018.7
N MID LAKE BUOY  2050   64 65  210/  6/  6 1017.2F   1
NORTHPORT PIER   2100   67      20/  3/  3 1017.3F
SISTER BAY       2104   72     300/  8/  9   N/A
ALGOMA LAKESHORE 2114             CALM       N/A
SHEBOYGAN LAKESH 2100   58     150/  2/  2 1017.8F
PORT WASHINGTON  2100   56      40/  4/  5 1017.9F
ATWATER BUOY     2100   52 48  360/  6/  8 1018.4F
MILWAUKEE LAKESH 2100   58      30/  9/  9   N/A
S MID LAKE BUOY  2050   67 68  110/ 12/ 14 1016.4F   2/ 4
KENOSHA   LAKESH 2100   61     360/  6/  6 1016.3F
$$

TC  - TEMPERATURE IN CELSIUS
VSB - VISIBILITY IN STATUTE MILES
WCI - WIND CHILL INDEX
HX  - HEAT INDEX




USA.gov is the U.S. government's official web portal to all federal, state and local government web resources and services.